Regional Weather Roundup
Issued by NWS San Angelo, TX

Home | Current Version | Previous Version | Text Only | Print | Product List | Glossary On
Versions: 1 2 3 4 5 6 7 8 9 10 11 12 13 14 15 16 17 18 19 20 21 22 23 24 25 26 27 28 29 30 31 32 33 34 35 36 37 38 39 40 41 42 43 44 45 46 47 48 49 50
000
ASUS44 KSJT 191710
RWRSJT
WEST CENTRAL TEXAS REGIONAL WEATHER ROUNDUP
NATIONAL WEATHER SERVICE SAN ANGELO TX
1200 PM CDT SAT AUG 19 2017

NOTE: "FAIR" INDICATES FEW OR NO CLOUDS BELOW 12,000 FEET WITH NO
SIGNIFICANT WEATHER AND/OR OBSTRUCTIONS TO VISIBILITY.

TXZ049-054-064>066-071>073-076>078-098-099-113-114-127-128-139-140-
154-155-168>170-191800
...LOCATIONS ACROSS WEST CENTRAL TEXAS...

CITY           SKY/WX    TMP DP  RH WIND       PRES   REMARKS
SAN ANGELO     SUNNY     93  66  40 S8        30.06S
ABILENE        SUNNY     88  72  58 SW10      30.06F
DYESS AFB      MOSUNNY   91  70  49 SW8       30.04F
JUNCTION       SUNNY     91  65  41 SE3       30.06F
SWEETWATER     CLOUDY    84  70  62 S13       30.12S
BROWNWOOD      SUNNY     91  66  43 W6        30.05F
COLEMAN        SUNNY     91  68  46 SW10      30.06F
SONORA         SUNNY     88  68  51 S8        30.12F
OZONA          FAIR      86  68  54 S6G17     30.12S
BRADY          NOT AVBL
$$

TEXAS PANHANDLE/OKLAHOMA PANHANDLE

CITY           SKY/WX    TMP DP  RH WIND       PRES   REMARKS
AMARILLO       SUNNY     86  64  47 SW10      30.12F
BORGER         SUNNY     88  62  41 VRB6      30.08F
CANADIAN       SUNNY     91  68  46 W8        30.03F
DALHART        SUNNY     85  63  47 S10       30.14S
DUMAS          SUNNY     84  63  48 SW13      30.12S
GUYMON         NOT AVBL
HEREFORD       SUNNY     86  65  49 W10       30.15S
PAMPA          SUNNY     90  61  37 SW13      30.10S
PERRYTON       SUNNY     88  71  56 SW12      30.05F
$$

SOUTHERN PANHANDLE/SOUTH PLAINS/ROLLING PLAINS

CITY           SKY/WX    TMP DP  RH WIND       PRES   REMARKS
LUBBOCK        MOSUNNY   86  64  47 S8        30.12F
SNYDER         MOSUNNY   86  69  56 S10       30.09F
CHILDRESS      SUNNY     89  68  49 VRB3      30.04F
SEMINOLE       SUNNY     85  61  44 SW8       30.13F
$$

PERMIAN BASIN

CITY           SKY/WX    TMP DP  RH WIND       PRES   REMARKS
MIDLAND        SUNNY     86  64  47 S12       30.10S
ODESSA         SUNNY     85  65  51 S7        30.11S
WINK           CLOUDY    84  65  52 VRB3      30.07F
$$

FAR WEST/SOUTHWEST MOUNTAINS/TRANS PECOS

CITY           SKY/WX    TMP DP  RH WIND       PRES   REMARKS
ALPINE         SUNNY     82  56  40 S5        30.25S
DRYDEN           N/A     86  64  47 CALM      30.06S
EL PASO        CLOUDY    79  62  56 VRB5      30.14F
FORT STOCKTON  SUNNY     89  60  37 SW9       30.10S
GUADALUPE PASS CLOUDY    77  59  53 SW16      30.26S
MARFA          SUNNY     78  58  49 CALM      30.23S
PECOS          SUNNY     85  65  51 CALM      30.07S
$$

DALLAS/FORT WORTH METROPLEX

CITY           SKY/WX    TMP DP  RH WIND       PRES   REMARKS
DFW AIRPORT    MOSUNNY   93  71  48 SW9       29.99F
FTW MEACHAM    SUNNY     92  73  53 W9        30.00F
DAL-EXECUTIVE  SUNNY     92  70  48 VRB6      30.00F
GRAND PRAIRIE  SUNNY     91  66  43 W10       30.02F
ADDISON        SUNNY     91  70  49 W7        30.01F
MESQUITE       SUNNY     91  66  43 SW8       30.01F
LANCASTER      SUNNY     92  69  47 W5        30.01F
$$

NORTH CENTRAL TEXAS

CITY           SKY/WX    TMP DP  RH WIND       PRES   REMARKS
SHRMAN/DENISON SUNNY     90  74  58 SW6       30.01F
GAINESVILLE    SUNNY     92  72  51 SW6       30.02S
BRIDGEPORT     SUNNY     90  72  55 W3        30.02F
DENTON         SUNNY     92  74  55 W6        30.00F
WAXAHACHIE     SUNNY     92  71  49 SW7       30.02F
GRANBURY       SUNNY     93  69  45 W6        30.02F
$$

WESTERN NORTH TEXAS

CITY           SKY/WX    TMP DP  RH WIND       PRES   REMARKS
WICHITA FALLS  SUNNY     92  72  51 SW9       29.99F
VERNON         SUNNY     91  67  45 SW5       30.01F
BRECKENRIDGE   SUNNY     95  67  39 W9G18     30.02F
COMANCHE       SUNNY     94  65  38 SW8       30.05F
$$

CENTRAL AND SOUTH CENTRAL TEXAS

CITY           SKY/WX    TMP DP  RH WIND       PRES   REMARKS
AUSTIN/BERGSTM MOSUNNY   93  71  48 VRB3      30.02F
WACO           SUNNY     93  69  45 VRB5      30.01F
HILLSBORO      SUNNY     91  71  51 SW7       30.02F
TEMPLE         SUNNY     93  69  45 SW10      30.03F
KILLEEN-GRAY   SUNNY     97  70  41 S9        30.03F
FORT HOOD      SUNNY     91  67  45 SW5       30.00F
GEORGETOWN     SUNNY     90  70  51 VRB6      30.05F
LAGO VISTA     FAIR      89  68  49 SW7       30.06F
SAN MARCOS     SUNNY     91  72  52 W8        30.03F
NEW BRAUNFELS  SUNNY     91  69  48 VRB5      30.02F
RANDOLPH AFB   SUNNY     90  70  51 S5        30.03F
SAN ANTONIO    MOSUNNY   88  71  57 VRB3      30.04F
STINSON        SUNNY     90  72  55 VRB6      30.00F
PLEASANTON     NOT AVBL
LA GRANGE      MOSUNNY   93  73  51 CALM      30.00F
GIDDINGS       SUNNY     90  71  53 S6        30.03F
$$

EAST TEXAS

CITY           SKY/WX    TMP DP  RH WIND       PRES   REMARKS
PARIS          SUNNY     91  76  61 W9        30.01F
CLARKSVILLE    NOT AVBL
TYLER          SUNNY     89  72  56 SW9       30.03S
LONGVIEW       SUNNY     90  76  63 VRB7      30.01F
PALESTINE      SUNNY     92  73  52 SW6       30.03F
NACOGDOCHES    SUNNY     90  75  62 SW8       30.04S
$$

TEXAS HILL COUNTRY AND EDWARDS PLATEAU

CITY           SKY/WX    TMP DP  RH WIND       PRES   REMARKS
LLANO          SUNNY     90  70  51 CALM      30.07F
HORSESHOE BAY  FAIR      91  66  43 S5        30.05F
KERRVILLE      SUNNY     89  72  56 CALM      30.07S
FREDERICKSBRG  SUNNY     87  62  43 CALM      30.07F
ROCKSPRINGS    NOT AVBL
HONDO          SUNNY     91  71  51 MISG      30.03F
UVALDE         SUNNY     90  68  48 S3        30.03F
DEL RIO        SUNNY     90  70  51 VRB5      30.00F
$$

SOUTHEAST TEXAS

CITY           SKY/WX    TMP DP  RH WIND       PRES   REMARKS
COLLEGE STN    SUNNY     89  74  60 S8        30.02F
CALDWELL       NOT AVBL
CROCKETT       SUNNY     91  75  59 W6        30.05F
BRENHAM        MOSUNNY   92  73  52 SW9       30.03S
HUNTSVILLE     MOSUNNY   91  72  53 SW7       30.03F
CONROE         SUNNY     91  74  57 SW6       30.03S
HOUSTON BUSH   MOSUNNY   91  74  57 W6        30.02S
HOUSTON HOBBY  PTSUNNY   93  74  53 W7        30.01F
PERLAND        SUNNY     93  72  50 CALM      30.02F
WHARTON        MOSUNNY   90  71  53 SW5       30.03S
$$

THE UPPER TEXAS COAST

CITY           SKY/WX    TMP DP  RH WIND       PRES   REMARKS
ORANGE         PTSUNNY   89  76  66 W3        30.04S
PORT ARTHUR    PTSUNNY   89  74  60 W8        30.01F
GALVESTON      MOSUNNY   90  79  70 S7        30.03S
ANGLETON       MOSUNNY   93  77  59 S8        30.01F
BAY CITY       PTSUNNY   90  77  66 NW3       30.01F
$$

TEXAS COASTAL BEND, RIO GRANDE PLAINS DEEP SOUTH TEXAS

CITY           SKY/WX    TMP DP  RH WIND       PRES   REMARKS
VICTORIA       SUNNY     91  72  53 SW5       30.01F
BEEVILLE       FAIR      94  69  44 SE7       30.01F
ROCKPORT         N/A     92  72  51 S7        30.00F
PORT ARANSAS   SUNNY     87  75  67 SE7       30.01F
PORT LAVACA    MOSUNNY   90  72  55 SW6       30.01F
CORPUS CHRISTI MOSUNNY   94  70  45 S9        30.00F
KINGSVILLE NAS MOSUNNY   94  74  52 S6        29.99F
COTULLA        SUNNY     92  69  47 VRB6      30.00F
LAREDO         SUNNY     92  72  51 SE8       29.99F
BROWNSVILLE    PTSUNNY   91  75  59 SE6       29.98F
PORT ISABEL    SUNNY     91  77  63 E14       29.98F
HEBBRONVILLE   SUNNY     90  66  45 S5        30.01F
MCALLEN        SUNNY     94  72  48 S10       29.98F
WESLACO        MOSUNNY   92  71  50 S8        29.97F
FALFURRIAS     SUNNY     93  69  44 S7        29.98F
EDINBURG       SUNNY     94  69  44 E13       29.98F
$$




USA.gov is the U.S. government's official web portal to all federal, state and local government web resources and services.